When you browse on this site, cookies collect data to enhance your experience and personalize the content and advertising you see.
Visit our Privacy Policy to learn more. By continuing to use the site, you agree to this use of cookies and data.
EN

Hourly Weather Mosjoen

Today, 10 August, Monday

Time Temperature Precipitation Wind Pressure Humidity
00:00 +10°C° 0 mm 1 mps 759 mmHg 93%
01:00 +9°C° 0 mm 0 mps 760 mmHg 92%
02:00 +8°C° 0 mm 0 mps 760 mmHg 93%
03:00 +8°C° 0 mm 0 mps 760 mmHg 93%
04:00 +8°C° 0 mm 0 mps 760 mmHg 93%
05:00 +9°C° 0 mm 0 mps 760 mmHg 88%
06:00 +11°C° 0 mm 1 mps 759 mmHg 84%
07:00 +13°C° 0 mm 1 mps 759 mmHg 79%
08:00 +14°C° 0 mm 1 mps 759 mmHg 74%
09:00 +15°C° 0 mm 1 mps 759 mmHg 69%
10:00 +16°C° 0 mm 1 mps 759 mmHg 63%
11:00 +18°C° 0 mm 1 mps 759 mmHg 60%
12:00 +19°C° 0 mm 1 mps 759 mmHg 56%
13:00 +20°C° 0 mm 1 mps 758 mmHg 52%
14:00 +20°C° 0 mm 1 mps 758 mmHg 51%
15:00 +20°C° 0 mm 2 mps 758 mmHg 50%
16:00 +20°C° 0 mm 2 mps 758 mmHg 49%
17:00 +19°C° 0 mm 2 mps 758 mmHg 55%
18:00 +19°C° 0 mm 2 mps 758 mmHg 62%
19:00 +18°C° 0 mm 2 mps 758 mmHg 68%
20:00 +16°C° 0 mm 1 mps 758 mmHg 71%
21:00 +15°C° 0 mm 1 mps 758 mmHg 74%
22:00 +13°C° 0 mm 1 mps 757 mmHg 76%
23:00 +13°C° 0 mm 1 mps 758 mmHg 75%

Tomorrow, 11 August, Tuesday

Time Temperature Precipitation Wind Pressure Humidity
00:00 +13°C° 0 mm 1 mps 758 mmHg 74%
01:00 +13°C° 0 mm 1 mps 758 mmHg 73%
02:00 +13°C° 0 mm 1 mps 758 mmHg 73%
03:00 +13°C° 0 mm 2 mps 758 mmHg 72%
04:00 +12°C° 0 mm 2 mps 758 mmHg 72%
05:00 +14°C° 0 mm 2 mps 758 mmHg 68%
06:00 +16°C° 0 mm 2 mps 758 mmHg 65%
07:00 +17°C° 0 mm 2 mps 758 mmHg 62%
08:00 +18°C° 0 mm 2 mps 758 mmHg 58%
09:00 +20°C° 0 mm 1 mps 758 mmHg 55%
10:00 +21°C° 0 mm 1 mps 758 mmHg 51%
11:00 +22°C° 0 mm 1 mps 758 mmHg 50%
12:00 +21°C° 0 mm 2 mps 758 mmHg 48%
13:00 +23°C° 0 mm 2 mps 758 mmHg 46%
14:00 +21°C° 0 mm 2 mps 758 mmHg 49%
15:00 +21°C° 0 mm 2 mps 758 mmHg 52%
16:00 +20°C° 0 mm 2 mps 758 mmHg 54%
17:00 +19°C° 0 mm 2 mps 758 mmHg 60%
18:00 +18°C° 0 mm 2 mps 758 mmHg 66%
19:00 +18°C° 0 mm 1 mps 758 mmHg 71%
20:00 +15°C° 0 mm 1 mps 758 mmHg 78%
21:00 +14°C° 0 mm 1 mps 758 mmHg 85%
22:00 +12°C° 0 mm 1 mps 758 mmHg 92%
23:00 +11°C° 0 mm 1 mps 758 mmHg 93%

Day after tomorrow, 12 August, Wednesday

Time Temperature Precipitation Wind Pressure Humidity
00:00 +11°C° 0 mm 1 mps 758 mmHg 94%
01:00 +10°C° 0 mm 1 mps 758 mmHg 96%
02:00 +9°C° 0 mm 0 mps 758 mmHg 96%
03:00 +9°C° 0 mm 0 mps 758 mmHg 97%
04:00 +9°C° 0 mm 0 mps 758 mmHg 98%
05:00 +10°C° 0 mm 0 mps 758 mmHg 94%
06:00 +11°C° 0 mm 0 mps 758 mmHg 91%
07:00 +12°C° 0 mm 0 mps 758 mmHg 87%
08:00 +13°C° 0 mm 0 mps 757 mmHg 81%
09:00 +14°C° 0 mm 0 mps 757 mmHg 74%
10:00 +15°C° 0 mm 0 mps 757 mmHg 67%
11:00 +18°C° 0 mm 1 mps 757 mmHg 62%
12:00 +19°C° 0 mm 1 mps 757 mmHg 58%
13:00 +19°C° 0 mm 1 mps 757 mmHg 53%
14:00 +20°C° 0 mm 1 mps 756 mmHg 53%
15:00 +20°C° 0 mm 1 mps 756 mmHg 52%
16:00 +20°C° 0 mm 1 mps 756 mmHg 51%
17:00 +20°C° 0 mm 1 mps 756 mmHg 56%
18:00 +19°C° 0 mm 1 mps 755 mmHg 62%
19:00 +18°C° 0 mm 1 mps 755 mmHg 67%
20:00 +16°C° 0 mm 1 mps 755 mmHg 72%
21:00 +13°C° 0 mm 0 mps 755 mmHg 77%
22:00 +12°C° 0 mm 0 mps 755 mmHg 82%
23:00 +12°C° 0 mm 0 mps 754 mmHg 79%

13 August, Thursday

Time Temperature Precipitation Wind Pressure Humidity
00:00 +14°C° 0 mm 1 mps 754 mmHg 76%
01:00 +14°C° 0 mm 1 mps 754 mmHg 73%
02:00 +15°C° 0 mm 1 mps 753 mmHg 70%
03:00 +15°C° 0 mm 1 mps 753 mmHg 68%
04:00 +15°C° 0 mm 1 mps 753 mmHg 66%
05:00 +16°C° 0.1 mm 1 mps 752 mmHg 67%
06:00 +16°C° 0.1 mm 2 mps 752 mmHg 68%
07:00 +16°C° 0.1 mm 2 mps 752 mmHg 70%
08:00 +16°C° 0.2 mm 2 mps 751 mmHg 71%
09:00 +16°C° 0.2 mm 2 mps 751 mmHg 73%
10:00 +17°C° 0.2 mm 2 mps 751 mmHg 75%
11:00 +17°C° 0 mm 2 mps 750 mmHg 76%
12:00 +17°C° 0 mm 2 mps 750 mmHg 77%
13:00 +18°C° 0 mm 2 mps 749 mmHg 77%
14:00 +18°C° 0 mm 2 mps 749 mmHg 76%
15:00 +19°C° 0 mm 2 mps 748 mmHg 74%
16:00 +20°C° 0 mm 1 mps 748 mmHg 72%
17:00 +18°C° 2.7 mm 2 mps 747 mmHg 80%
18:00 +17°C° 2.7 mm 2 mps 747 mmHg 88%
19:00 +16°C° 2.7 mm 3 mps 747 mmHg 96%
20:00 +16°C° 0.8 mm 3 mps 747 mmHg 96%
21:00 +14°C° 0.8 mm 3 mps 747 mmHg 96%
22:00 +14°C° 0.8 mm 4 mps 747 mmHg 96%
23:00 +14°C° 1.3 mm 4 mps 747 mmHg 96%

14 August, Friday

Time Temperature Precipitation Wind Pressure Humidity
00:00 +14°C° 1.3 mm 4 mps 748 mmHg 97%
01:00 +13°C° 1.3 mm 4 mps 748 mmHg 97%
02:00 +13°C° 1.3 mm 4 mps 748 mmHg 97%
03:00 +13°C° 1.3 mm 3 mps 748 mmHg 97%
04:00 +12°C° 1.3 mm 3 mps 748 mmHg 97%
05:00 +12°C° 0.4 mm 3 mps 748 mmHg 97%
06:00 +12°C° 0.4 mm 3 mps 749 mmHg 97%
07:00 +13°C° 0.4 mm 2 mps 749 mmHg 97%
08:00 +13°C° 0.1 mm 2 mps 749 mmHg 95%
09:00 +13°C° 0.1 mm 2 mps 749 mmHg 93%
10:00 +13°C° 0.1 mm 2 mps 750 mmHg 91%
11:00 +14°C° 0 mm 2 mps 750 mmHg 87%
12:00 +14°C° 0 mm 2 mps 750 mmHg 83%
13:00 +15°C° 0 mm 2 mps 750 mmHg 79%
14:00 +15°C° 0 mm 2 mps 750 mmHg 77%
15:00 +15°C° 0 mm 2 mps 750 mmHg 75%
16:00 +15°C° 0 mm 2 mps 750 mmHg 73%
17:00 +14°C° 0 mm 2 mps 750 mmHg 75%
18:00 +14°C° 0 mm 2 mps 750 mmHg 76%
19:00 +14°C° 0 mm 1 mps 750 mmHg 78%
20:00 +12°C° 0 mm 1 mps 751 mmHg 83%
21:00 +11°C° 0 mm 1 mps 751 mmHg 87%
22:00 +9°C° 0 mm 1 mps 751 mmHg 92%
23:00 +9°C° 0 mm 1 mps 751 mmHg 93%

15 August, Saturday

Time Temperature Precipitation Wind Pressure Humidity
00:00 +9°C° 0 mm 1 mps 751 mmHg 94%
01:00 +9°C° 0 mm 1 mps 751 mmHg 94%
02:00 +9°C° 0 mm 1 mps 751 mmHg 94%
03:00 +9°C° 0 mm 1 mps 751 mmHg 95%
04:00 +9°C° 0 mm 1 mps 751 mmHg 95%
05:00 +10°C° 0 mm 1 mps 751 mmHg 90%
06:00 +11°C° 0 mm 1 mps 752 mmHg 86%
07:00 +13°C° 0 mm 1 mps 752 mmHg 82%
08:00 +14°C° 0 mm 1 mps 752 mmHg 79%
09:00 +15°C° 0 mm 2 mps 752 mmHg 75%
10:00 +16°C° 0 mm 2 mps 752 mmHg 72%
11:00 +16°C° 0 mm 2 mps 752 mmHg 71%
12:00 +17°C° 0 mm 2 mps 752 mmHg 71%
13:00 +18°C° 0 mm 2 mps 752 mmHg 70%
14:00 +17°C° 0 mm 2 mps 752 mmHg 71%
15:00 +17°C° 0 mm 2 mps 752 mmHg 72%
16:00 +18°C° 0 mm 1 mps 752 mmHg 73%
17:00 +18°C° 0 mm 1 mps 752 mmHg 76%
18:00 +18°C° 0 mm 1 mps 752 mmHg 78%
19:00 +16°C° 0 mm 1 mps 752 mmHg 80%
20:00 +15°C° 0 mm 1 mps 752 mmHg 85%
21:00 +12°C° 0 mm 0 mps 753 mmHg 89%
22:00 +11°C° 0 mm 0 mps 753 mmHg 93%
23:00 +11°C° 0 mm 0 mps 753 mmHg 93%
Show more